EHI
2 1 0 0 0 0 0 0 0 1 2 2 3 3 3 2 2 2 2 1 1 1 1 0 1 0 0 0 0 0 0 0 0 1 1 0 0 0 0 0 0 0 0
4 2 0 0 0 0 0 0 0 0 1 1 1 1 1 1 1 1 1 1 2 3 2 1 1 0 0 0 0 0 0 0 0 1 2 1 0 0 0 0 0 0 0
7 4 1 0 0 0 0 0 0 0 0 0 0 0 0 0 0 0 0 0 1 2 2 1 1 0 0 0 0 0 0 1 1 2 2 1 0 0 0 0 0 0 0
7 5 2 0 0 0 0 0 0 0 0 0 0 0 0 0 0 0 0 0 0 1 1 1 0 0 0 0 0 0 0 1 2 2 1 1 0 0 0 0 0 0 0
7 4 1 0 0 0 0 0 0 0 0 0 0 0 0 0 0 0 0 0 0 0 0 0 0 0 0 0 0 0 0 1 1 1 1 1 0 0 0 0 0 0 0
6 4 1 0 0 0 0 0 0 0 0 0 0 0 0 0 0 0 0 0 0 0 0 0 0 0 0 0 0 0 0 0 0 0 1 1 0 0 0 0 0 0 0
2 1 0 0 0 0 0 0 0 0 0 0 0 0 0 0 0 0 0 0 0 0 0 0 0 0 0 0 0 0 0 0 0 0 0 0 0 0 0 0 0 0 0
0 0 0 0 0 0 0 0 0 0 0 0 0 0 0 0 0 0 0 0 0 0 0 0 0 0 0 0 0 0 0 0 0 0 0 0 0 0 0 0 0 0 0
0 0 0 0 0 0 0 0 0 0 0 0 0 0 0 0 0 0 0 0 0 0 0 0 0 0 0 0 0 0 0 0 0 0 0 0 0 0 0 0 0 0 0
0 0 0 0 0 0 0 0 0 0 0 0 0 0 0 0 0 0 0 0 0 0 0 0 0 0 0 0 0 0 0 0 0 0 0 0 0 0 0 0 0 0 0
0 0 0 0 0 0 0 0 0 0 0 0 0 0 0 0 0 0 0 0 0 0 0 0 0 0 0 0 0 0 0 0 0 0 0 0 0 0 0 0 0 0 0
0 0 0 0 0 0 0 0 0 0 0 0 0 0 0 0 0 0 0 0 0 0 0 0 0 0 0 0 0 0 0 0 0 0 0 0 0 0 0 0 0 0 0
0 0 0 0 0 0 0 0 0 0 1 0 0 0 0 0 0 0 0 0 0 0 0 0 0 0 0 0 0 0 0 0 0 0 0 0 0 0 0 0 0 0 0
0 0 0 0 0 0 0 0 0 0 0 0 0 0 0 0 0 0 0 0 0 0 0 0 0 0 0 0 0 0 0 0 0 0 0 0 0 0 0 0 0 0 0
0 0 0 0 0 0 0 0 0 0 0 0 0 0 0 0 0 0 0 0 0 0 0 0 0 0 0 0 0 0 0 0 0 0 0 0 0 0 0 0 0 0 0
0 0 0 0 0 0 0 0 0 0 0 0 0 0 0 0 0 0 0 0 0 0 0 0 0 0 0 0 0 0 0 0 0 0 0 0 0 0 0 0 0 0 0
0 0 0 0 0 0 0 0 0 0 0 0 0 0 0 0 0 0 0 0 0 0 0 0 0 0 0 0 0 0 0 0 0 0 0 0 0 0 0 0 0 0 0
0 0 0 0 0 0 0 0 0 0 0 0 0 0 0 0 0 0 0 0 0 0 0 0 0 0 0 0 0 0 0 0 0 0 0 0 0 0 0 0 0 0 0
0 0 0 0 0 0 0 0 0 0 0 0 0 0 0 0 0 0 0 0 0 0 0 0 0 0 0 0 0 0 0 0 0 0 0 0 0 0 0 0 0 0 0
0 0 0 0 0 0 0 0 0 0 0 0 0 0 0 0 0 0 0 0 0 0 0 0 0 0 0 0 0 0 0 0 0 0 0 0 0 0 0 0 0 0 0
0 0 0 0 0 0 0 0 0 0 0 0 0 0 0 0 0 0 0 0 0 0 0 0 0 0 0 0 0 0 0 0 0 0 0 0 0 0 0 0 0 0 0
0 0 0 0 0 0 0 0 0 0 0 0 0 0 0 0 0 0 0 0 0 0 0 0 0 0 0 0 0 0 0 0 0 0 0 0 0 0 0 0 0 0 0
0 0 0 0 0 0 0 0 0 0 0 0 0 0 0 0 0 0 0 0 0 0 0 0 0 0 0 0 0 0 0 0 0 0 0 0 0 0 0 0 0 0 0
0 0 0 0 0 0 0 0 0 0 0 0 0 0 0 0 0 0 0 0 0 0 0 0 0 0 0 0 0 0 0 0 0 0 0 0 0 0 0 0 0 0 0
0 0 0 0 0 0 0 0 0 0 0 0 0 0 0 0 0 0 0 0 0 0 0 0 0 0 0 0 0 0 0 0 0 0 0 0 0 0 0 0 0 0 0
0 0 0 0 0 0 0 0 0 0 0 0 0 0 0 0 0 0 0 0 0 0 0 0 0 0 0 0 0 0 0 0 0 0 0 0 0 0 0 0 0 0 0
Wind_Speed
4 4 4 4 5 5 6 6 5 5 4 3 2 1 1 1 2 2 2 1 1 1 1 1 1 2 2 3 3 2 3 2 2 1 0 0 0 1 1 1 0 0 1
4 4 4 5 6 5 5 5 5 5 4 2 1 1 1 1 1 2 3 3 2 2 1 1 1 1 2 2 3 3 2 2 3 2 1 1 1 1 1 1 1 1 1
5 4 5 5 5 6 5 4 5 5 5 4 2 2 2 2 2 2 3 3 3 2 1 1 0 1 1 2 2 3 4 3 3 2 3 3 3 1 0 1 1 1 1
5 5 5 4 5 5 5 5 5 5 5 5 4 3 1 1 2 2 2 3 3 3 3 2 1 1 1 1 2 2 2 3 3 2 2 1 2 2 1 0 0 1 1
6 5 5 5 6 5 5 5 5 6 5 4 4 3 2 1 1 2 2 3 3 4 4 3 2 2 1 1 1 1 2 2 3 3 2 2 1 2 2 2 1 1 1
7 7 6 7 6 5 5 5 6 6 5 5 5 4 3 2 3 3 3 3 3 3 5 4 3 3 2 2 1 1 2 2 3 3 3 3 3 3 3 3 2 1 1
7 7 6 6 5 5 5 5 5 5 5 5 5 4 3 3 3 3 3 3 3 3 4 4 3 3 3 2 2 1 1 2 3 3 3 3 3 2 3 4 3 2 1
7 6 5 5 5 4 4 4 4 4 5 5 5 4 4 2 2 3 3 3 2 3 4 3 3 4 3 3 2 2 2 1 2 2 3 2 2 2 3 4 4 3 2
7 6 5 5 4 4 4 3 4 4 4 5 5 5 5 4 3 3 3 2 3 3 4 4 4 4 4 3 2 2 2 2 2 1 1 1 1 2 2 2 4 5 4
7 6 5 4 3 3 3 4 4 4 4 4 4 4 4 4 4 3 4 4 4 4 4 4 4 4 4 3 3 2 2 2 2 1 1 1 1 1 2 2 2 2 4
8 6 5 4 3 3 4 4 4 4 4 5 4 4 4 4 4 4 4 4 4 4 4 4 4 4 3 3 3 3 3 3 2 2 1 1 1 0 1 2 2 3 4
8 6 5 4 3 3 3 3 3 4 4 4 4 4 4 5 5 5 5 4 4 4 4 4 4 4 4 3 3 3 3 3 3 3 2 1 1 2 2 3 4 4 4
8 6 5 4 3 3 3 3 3 4 4 4 4 5 5 5 5 5 4 5 4 5 5 4 4 4 4 4 4 3 4 4 4 3 3 2 3 4 4 5 5 5 7
8 7 5 3 2 2 2 3 3 4 4 4 4 5 5 4 4 4 5 5 5 5 5 5 4 4 4 4 4 5 5 5 5 5 4 4 4 4 5 6 7 8 10
8 7 5 3 3 2 2 2 3 3 4 4 4 4 4 4 4 5 5 5 5 5 5 5 5 5 4 4 4 5 5 6 6 6 6 6 8 8 6 7 8 9 9
8 7 5 4 3 2 1 2 3 3 3 4 3 3 4 4 5 4 5 5 6 6 6 6 6 6 5 7 8 6 6 6 7 7 7 8 9 11 13 13 11 10 10
8 6 5 4 2 1 2 2 2 2 3 3 3 3 3 4 4 4 5 6 5 6 7 7 7 7 8 10 10 10 7 8 7 7 6 7 8 9 10 13 14 12 10
7 6 5 4 2 2 2 2 2 3 3 3 3 3 3 4 4 5 5 5 5 6 6 7 7 7 8 11 11 10 9 9 9 8 7 8 8 8 9 10 11 10 8
7 5 4 4 3 3 2 3 3 3 3 3 3 3 3 3 4 5 4 4 5 6 6 6 7 7 8 10 10 8 7 8 9 9 9 8 8 10 11 11 11 10 8
6 5 5 4 4 3 3 4 3 4 3 3 3 3 3 3 4 4 4 4 5 5 6 7 7 7 7 8 9 8 6 7 7 7 9 11 10 10 10 9 9 9 6
7 6 5 4 3 3 4 4 3 3 2 3 3 4 4 3 3 4 4 4 5 6 6 7 6 7 7 8 10 9 6 6 6 6 6 6 11 12 12 9 7 7 6
6 6 5 4 3 3 4 4 3 2 2 3 4 4 4 4 4 4 4 4 5 6 5 5 6 5 6 8 9 11 9 7 6 5 4 5 10 12 11 8 8 9 7
6 5 5 4 3 3 3 4 2 2 3 4 5 4 5 5 4 4 5 4 4 4 4 4 4 4 4 6 9 10 9 9 6 4 6 7 10 10 8 9 8 6 5
5 5 5 4 3 2 3 3 3 3 4 5 4 4 5 5 5 4 4 4 3 3 3 3 3 3 3 4 4 4 4 6 6 4 6 8 10 8 6 6 5 4 3
4 5 5 4 3 3 3 3 3 4 4 4 4 4 4 4 4 4 4 3 2 1 2 1 1 2 2 2 2 2 2 2 2 3 4 4 4 4 4 4 4 3 3
5 5 4 4 3 3 3 3 3 4 4 4 3 3 2 2 3 3 4 7 5 5 3 2 2 1 1 1 3 4 4 4 4 4 3 3 3 3 2 2 2 2 2
Wind_Direction
113 93 76 70 69 57 51 44 43 35 39 41 44 60 52 13 7 359 2 33 355 332 255 260 243 211 215 218 203 188 180 187 156 132 165 300 257 249 247 233 166 211 196
117 97 76 64 61 58 52 44 41 38 39 36 35 65 52 53 13 343 354 5 9 346 289 245 240 228 216 209 197 177 177 188 174 158 169 246 272 254 252 219 184 214 169
139 113 84 66 64 59 52 50 39 36 34 26 34 40 33 25 14 352 342 342 351 353 349 329 277 239 210 210 207 197 198 198 193 185 178 190 219 229 277 230 193 177 150
119 105 94 76 64 58 53 53 42 35 29 31 42 49 45 18 341 326 317 335 358 8 12 8 6 334 239 221 223 209 216 197 203 202 209 210 176 184 211 304 165 136 132
129 117 102 86 68 59 57 50 46 38 30 36 44 50 43 14 336 338 339 348 2 10 9 11 10 5 345 294 244 220 221 215 210 201 188 193 210 202 182 201 173 115 49
130 118 104 91 72 57 51 46 48 39 31 40 44 47 38 14 1 356 349 351 358 3 3 4 10 6 352 329 279 237 234 238 231 219 208 197 193 192 181 177 166 149 83
128 121 110 97 86 68 56 49 51 41 30 38 38 34 27 17 3 349 347 347 350 351 349 354 0 357 344 341 333 297 265 251 242 233 229 222 217 177 166 162 151 139 108
125 121 113 101 91 79 61 54 53 43 30 34 30 27 26 19 3 357 351 350 343 333 335 348 357 356 353 355 357 350 327 297 265 251 240 228 217 188 182 170 155 147 131
127 118 106 98 92 79 60 50 49 40 30 28 30 29 25 22 15 7 11 6 352 343 351 359 360 1 1 358 1 5 344 333 315 292 260 233 226 206 200 184 175 163 160
126 119 113 106 95 81 65 49 45 42 29 27 28 29 22 17 14 16 16 9 360 359 358 3 8 10 11 12 16 13 11 28 0 353 359 323 261 219 194 189 181 158 147
136 128 121 114 98 73 62 51 38 39 33 28 26 27 21 18 20 25 18 9 4 3 5 8 13 15 16 20 27 30 31 35 21 13 15 356 343 125 130 130 130 121 124
134 129 123 111 90 68 55 45 34 38 34 31 30 27 23 24 27 24 15 12 13 12 13 20 24 23 26 27 33 39 38 39 32 19 31 32 69 88 101 112 114 112 113
131 126 121 116 100 74 54 43 34 35 34 37 35 29 24 25 25 20 15 16 20 21 20 28 33 31 33 36 34 41 42 43 42 37 46 51 81 89 92 102 106 105 105
137 135 133 126 104 76 59 48 33 35 38 39 36 31 23 20 20 22 25 24 26 28 24 27 34 36 41 44 42 47 48 50 51 50 52 59 76 93 100 102 105 107 108
144 142 142 134 112 89 60 47 40 36 38 40 35 27 22 28 31 30 31 33 33 32 29 35 38 37 40 41 49 57 58 58 59 56 56 66 79 87 98 107 111 113 113
150 146 143 135 125 113 81 59 46 35 40 40 31 24 31 36 37 33 36 41 37 34 39 42 45 44 45 45 52 65 66 63 63 63 61 66 71 82 88 94 100 111 122
152 148 143 139 137 123 98 71 56 49 46 37 33 34 38 43 37 42 45 42 39 45 47 44 49 50 43 49 57 62 70 65 58 59 65 72 71 80 90 87 84 83 91
145 141 139 134 125 103 88 81 73 65 56 44 37 35 41 47 45 51 50 43 43 47 48 48 50 52 42 47 56 62 67 64 55 54 62 75 71 79 92 91 84 77 73
138 137 134 130 117 101 95 90 75 66 63 52 41 35 48 56 54 54 51 49 56 52 46 44 48 52 38 39 50 61 67 64 55 50 54 68 75 78 90 93 90 83 71
126 126 123 114 104 93 94 89 77 66 57 47 41 42 55 63 62 60 59 57 63 60 57 50 43 48 43 36 46 58 72 69 61 52 48 55 71 73 82 92 96 91 83
122 122 115 107 105 104 99 89 78 65 51 55 58 57 57 64 69 67 66 67 67 66 60 55 43 41 40 39 45 55 69 75 70 60 48 48 67 73 74 81 89 100 99
118 115 108 98 94 102 106 96 83 66 68 70 66 61 57 59 69 75 71 67 69 69 59 56 47 36 33 41 50 58 65 73 79 70 57 63 73 73 73 78 91 95 90
121 115 113 106 92 97 108 110 95 87 86 77 71 67 64 55 57 73 78 70 66 71 62 59 55 36 30 37 50 58 63 67 76 73 78 81 78 73 69 72 79 82 84
125 121 118 114 106 101 108 115 107 101 95 83 73 67 69 62 54 54 62 73 69 73 72 68 61 46 35 30 28 38 52 59 68 66 65 68 68 68 66 60 57 60 72
127 127 131 132 128 121 110 111 112 108 96 86 79 73 69 71 65 58 50 63 57 90 115 109 102 82 59 358 7 51 50 56 77 81 61 54 52 55 53 52 51 53 63
133 132 131 132 131 126 124 123 122 115 105 90 78 74 79 76 77 79 61 48 56 60 84 125 133 84 98 70 63 63 66 78 97 84 71 63 60 63 59 57 51 50 55